| time (UTC) | temp C | wind direction | speed KPH | gust KPH | rain 1hr cm | rain 24hr cm | rain mn cm | humidity % | barometer mb |
| 20260902223549 | 37 | 70 | 9.7 | 17.7 | 0.00 | 0.00 | 0.00 | 25 | 1011.2 |
| 20260902222524 | 37 | 65 | 9.7 | 22.5 | 0.00 | 0.00 | 0.00 | 25 | 1011.3 |
| 20260902221519 | 37 | 57 | 9.7 | 17.7 | 0.00 | 0.00 | 0.00 | 25 | 1011.4 |
| 20260902220528 | 37 | 61 | 6.4 | 14.5 | 0.00 | 0.00 | 0.00 | 24 | 1011.4 |
| 20260902215026 | 37 | 59 | 8.0 | 20.9 | 0.00 | 0.00 | 0.00 | 26 | 1011.6 |
| 20260902214021 | 37 | 67 | 9.7 | 17.7 | 0.00 | 0.00 | 0.00 | 25 | 1011.7 |
| 20260902213016 | 37 | 58 | 6.4 | 16.1 | 0.00 | 0.00 | 0.00 | 27 | 1011.7 |
| 20260902212026 | 37 | 83 | 9.7 | 16.1 | 0.00 | 0.00 | 0.00 | 26 | 1011.9 |
| 20260902211528 | 37 | 56 | 6.4 | 17.7 | 0.00 | 0.00 | 0.00 | 26 | 1012.0 |
| 20260902210543 | 37 | 53 | 8.0 | 16.1 | 0.00 | 0.00 | 0.00 | 25 | 1012.1 |
| 20260902205519 | 37 | 76 | 8.0 | 16.1 | 0.00 | 0.00 | 0.00 | 26 | 1012.2 |
| 20260902204528 | 37 | 79 | 6.4 | 14.5 | 0.00 | 0.00 | 0.00 | 26 | 1012.3 |
| 20260902203523 | 37 | 65 | 9.7 | 22.5 | 0.00 | 0.00 | 0.00 | 26 | 1012.4 |
| 20260902202518 | 37 | 73 | 9.7 | 17.7 | 0.00 | 0.00 | 0.00 | 26 | 1012.4 |
| 20260902201528 | 38 | 65 | 8.0 | 16.1 | 0.00 | 0.00 | 0.00 | 26 | 1012.7 |
| 20260902200543 | 38 | 84 | 6.4 | 17.7 | 0.00 | 0.00 | 0.00 | 27 | 1012.8 |
| 20260902195518 | 37 | 92 | 6.4 | 14.5 | 0.00 | 0.00 | 0.00 | 26 | 1012.9 |
| 20260902194528 | 37 | 59 | 6.4 | 14.5 | 0.00 | 0.00 | 0.00 | 27 | 1013.1 |
| 20260902193523 | 37 | 66 | 8.0 | 17.7 | 0.00 | 0.00 | 0.00 | 27 | 1013.2 |
| 20260902192518 | 37 | 60 | 6.4 | 16.1 | 0.00 | 0.00 | 0.00 | 27 | 1013.5 |
| 20260902191528 | 37 | 317 | 4.8 | 12.9 | 0.00 | 0.00 | 0.00 | 29 | 1013.6 |
| 20260902190523 | 37 | 74 | 8.0 | 20.9 | 0.00 | 0.00 | 0.00 | 28 | 1013.8 |
| 20260902185518 | 37 | 81 | 6.4 | 17.7 | 0.00 | 0.00 | 0.00 | 28 | 1013.8 |
| 20260902184548 | 37 | 54 | 4.8 | 11.3 | 0.00 | 0.00 | 0.00 | 29 | 1014.2 |
| 20260902183523 | 37 | 31 | 4.8 | 16.1 | 0.00 | 0.00 | 0.00 | 29 | 1014.2 |
| 20260902182518 | 37 | 83 | 3.2 | 11.3 | 0.00 | 0.00 | 0.00 | 30 | 1014.4 |
| 20260902181528 | 37 | 322 | 4.8 | 14.5 | 0.00 | 0.00 | 0.00 | 30 | 1014.7 |
| 20260902180523 | 36 | 58 | 3.2 | 12.9 | 0.00 | 0.00 | 0.00 | 30 | 1014.8 |
| 20260902175518 | 36 | 47 | 6.4 | 12.9 | 0.00 | 0.00 | 0.00 | 30 | 1015.1 |
| 20260902174528 | 36 | 97 | 3.2 | 12.9 | 0.00 | 0.00 | 0.00 | 31 | 1015.3 |
| 20260902173524 | 36 | 354 | 4.8 | 11.3 | 0.00 | 0.00 | 0.00 | 32 | 1015.4 |
| 20260902172519 | 35 | 87 | 4.8 | 11.3 | 0.00 | 0.00 | 0.00 | 33 | 1015.5 |
| 20260902171609 | 35 | 77 | 4.8 | 11.3 | 0.00 | 0.00 | 0.00 | 33 | 1015.7 |
| 20260902170525 | 35 | 119 | 6.4 | 12.9 | 0.00 | 0.00 | 0.00 | 33 | 1016.0 |
| 20260902165520 | 35 | 105 | 3.2 | 4.8 | 0.00 | 0.00 | 0.00 | 33 | 1016.0 |
| 20260902164529 | 35 | 50 | 3.2 | 4.8 | 0.00 | 0.00 | 0.00 | 34 | 1016.1 |
| 20260902163525 | 35 | 61 | 4.8 | 12.9 | 0.00 | 0.00 | 0.00 | 34 | 1016.2 |
| 20260902162520 | 34 | 122 | 3.2 | 9.7 | 0.00 | 0.00 | 0.00 | 34 | 1016.2 |
| 20260902161530 | 34 | 107 | 4.8 | 11.3 | 0.00 | 0.00 | 0.00 | 34 | 1016.3 |
| 20260902160545 | 34 | 58 | 3.2 | 9.7 | 0.00 | 0.00 | 0.00 | 34 | 1016.3 |
| 20260902155528 | 33 | 101 | 3.2 | 9.7 | 0.00 | 0.00 | 0.00 | 35 | 1016.4 |
| 20260902154521 | 33 | 103 | 4.8 | 11.3 | 0.00 | 0.00 | 0.00 | 37 | 1016.4 |
| 20260902153530 | 32 | 60 | 4.8 | 11.3 | 0.00 | 0.00 | 0.00 | 39 | 1016.4 |
| 20260902152600 | 31 | 128 | 3.2 | 6.4 | 0.00 | 0.00 | 0.00 | 41 | 1016.5 |
| 20260902151527 | 31 | 87 | 3.2 | 9.7 | 0.00 | 0.00 | 0.00 | 43 | 1016.3 |
| 20260902150522 | 30 | 95 | 3.2 | 9.7 | 0.00 | 0.00 | 0.00 | 44 | 1016.3 |
| 20260902145526 | 30 | 107 | 1.6 | 4.8 | 0.00 | 0.00 | 0.00 | 45 | 1016.4 |
| 20260902144517 | 29 | 105 | 1.6 | 4.8 | 0.00 | 0.00 | 0.00 | 47 | 1016.2 |
| 20260902143527 | 28 | 127 | 1.6 | 6.4 | 0.00 | 0.00 | 0.00 | 49 | 1016.4 |
| 20260902142523 | 28 | 113 | 4.8 | 6.4 | 0.00 | 0.00 | 0.00 | 50 | 1016.3 |
| 20260902141517 | 27 | 122 | 3.2 | 9.7 | 0.00 | 0.00 | 0.00 | 53 | 1016.3 |
| 20260902140547 | 26 | 127 | 3.2 | 4.8 | 0.00 | 0.00 | 0.00 | 55 | 1016.3 |
| 20260902135522 | 25 | 127 | 4.8 | 9.7 | 0.00 | 0.00 | 0.00 | 57 | 1016.3 |
| 20260902134537 | 25 | 109 | 3.2 | 6.4 | 0.00 | 0.00 | 0.00 | 58 | 1016.1 |
| 20260902133527 | 23 | 109 | 3.2 | 6.4 | 0.00 | 0.00 | 0.00 | 60 | 1016.3 |
| 20260902132522 | 23 | 109 | 3.2 | 9.7 | 0.00 | 0.00 | 0.00 | 62 | 1016.3 |
| 20260902131517 | 23 | 114 | 4.8 | 11.3 | 0.00 | 0.00 | 0.00 | 63 | 1016.3 |
| 20260902130527 | 23 | 103 | 4.8 | 9.7 | 0.00 | 0.00 | 0.00 | 63 | 1016.1 |
| 20260902125522 | 22 | 104 | 3.2 | 6.4 | 0.00 | 0.00 | 0.00 | 64 | 1015.9 |
| 20260902124518 | 22 | 106 | 3.2 | 4.8 | 0.00 | 0.00 | 0.00 | 66 | 1015.8 |
| 20260902123528 | 22 | 110 | 1.6 | 4.8 | 0.00 | 0.00 | 0.00 | 66 | 1015.7 |
| 20260902122522 | 22 | 117 | 1.6 | 3.2 | 0.00 | 0.00 | 0.00 | 66 | 1015.6 |
| 20260902121517 | 22 | 106 | 3.2 | 6.4 | 0.00 | 0.00 | 0.00 | 65 | 1015.6 |
| 20260902120527 | 22 | 102 | 3.2 | 4.8 | 0.00 | 0.00 | 0.00 | 65 | 1015.6 |
| 20260902115522 | 22 | 94 | 3.2 | 4.8 | 0.00 | 0.00 | 0.00 | 65 | 1015.5 |
| 20260902114517 | 22 | 96 | 3.2 | 6.4 | 0.00 | 0.00 | 0.00 | 65 | 1015.6 |
| 20260902113527 | 22 | 102 | 3.2 | 4.8 | 0.00 | 0.00 | 0.00 | 65 | 1015.6 |
| 20260902112522 | 22 | 94 | 3.2 | 4.8 | 0.00 | 0.00 | 0.00 | 65 | 1015.6 |
| 20260902111517 | 22 | 86 | 0.0 | 1.6 | 0.00 | 0.00 | 0.00 | 66 | 1015.5 |
| 20260902110526 | 22 | 94 | 1.6 | 3.2 | 0.00 | 0.00 | 0.00 | 65 | 1015.5 |
| 20260902063544 | 25 | 139 | 4.8 | 12.9 | 0.00 | 0.00 | 0.00 | 54 | 1015.4 |
| 20260902062534 | 25 | 159 | 4.8 | 16.1 | 0.00 | 0.00 | 0.00 | 54 | 1015.5 |
| 20260902061553 | 25 | 149 | 4.8 | 14.5 | 0.00 | 0.00 | 0.00 | 54 | 1015.4 |
| 20260902060539 | 25 | 121 | 4.8 | 14.5 | 0.00 | 0.00 | 0.00 | 54 | 1015.2 |
| 20260902055519 | 25 | 154 | 4.8 | 12.9 | 0.00 | 0.00 | 0.00 | 54 | 1015.2 |
| 20260902054532 | 25 | 135 | 4.8 | 12.9 | 0.00 | 0.00 | 0.00 | 54 | 1015.1 |
| 20260902053543 | 26 | 140 | 4.8 | 12.9 | 0.00 | 0.00 | 0.00 | 54 | 1015.0 |
| 20260902052541 | 26 | 153 | 4.8 | 14.5 | 0.00 | 0.00 | 0.00 | 53 | 1015.2 |
| 20260902051529 | 26 | 130 | 4.8 | 12.9 | 0.00 | 0.00 | 0.00 | 53 | 1015.2 |
| 20260902050537 | 26 | 138 | 6.4 | 16.1 | 0.00 | 0.00 | 0.00 | 52 | 1015.1 |
| 20260902045536 | 26 | 136 | 4.8 | 12.9 | 0.00 | 0.00 | 0.00 | 51 | 1015.2 |
| 20260902044524 | 26 | 139 | 6.4 | 14.5 | 0.00 | 0.00 | 0.00 | 51 | 1015.1 |
| 20260902043544 | 26 | 130 | 6.4 | 14.5 | 0.00 | 0.00 | 0.00 | 50 | 1015.1 |
| 20260902042527 | 27 | 141 | 6.4 | 16.1 | 0.00 | 0.00 | 0.00 | 49 | 1015.2 |
| 20260902041530 | 27 | 134 | 4.8 | 11.3 | 0.00 | 0.00 | 0.00 | 48 | 1015.1 |
| 20260902040527 | 27 | 130 | 6.4 | 14.5 | 0.00 | 0.00 | 0.00 | 48 | 1015.0 |
| 20260902035526 | 27 | 133 | 8.0 | 16.1 | 0.00 | 0.00 | 0.00 | 46 | 1015.0 |
| 20260902034524 | 27 | 115 | 4.8 | 9.7 | 0.00 | 0.00 | 0.00 | 45 | 1014.7 |
| 20260902033521 | 28 | 96 | 3.2 | 4.8 | 0.00 | 0.00 | 0.00 | 45 | 1014.6 |
| 20260902032519 | 28 | 104 | 3.2 | 4.8 | 0.00 | 0.00 | 0.00 | 45 | 1014.6 |
| 20260902031517 | 28 | 113 | 3.2 | 4.8 | 0.00 | 0.00 | 0.00 | 44 | 1014.6 |
| 20260902030522 | 28 | 118 | 4.8 | 4.8 | 0.00 | 0.00 | 0.00 | 43 | 1014.4 |
| 20260902015022 | 30 | 121 | 4.8 | 6.4 | 0.00 | 0.00 | 0.00 | 38 | 1013.4 |
| 20260902014017 | 30 | 104 | 4.8 | 9.7 | 0.00 | 0.00 | 0.00 | 38 | 1013.3 |
| 20260902013027 | 30 | 116 | 4.8 | 6.4 | 0.00 | 0.00 | 0.00 | 37 | 1013.2 |
| 20260902012022 | 30 | 108 | 4.8 | 9.7 | 0.00 | 0.00 | 0.00 | 37 | 1013.2 |
| 20260902011017 | 31 | 107 | 4.8 | 6.4 | 0.00 | 0.00 | 0.00 | 37 | 1013.1 |
| 20260902010047 | 31 | 116 | 4.8 | 9.7 | 0.00 | 0.00 | 0.00 | 36 | 1013.0 |
| 20260902005022 | 31 | 94 | 4.8 | 6.4 | 0.00 | 0.00 | 0.00 | 35 | 1013.0 |
| 20260902004037 | 32 | 119 | 4.8 | 11.3 | 0.00 | 0.00 | 0.00 | 35 | 1013.0 |
| 20260902003047 | 32 | 120 | 8.0 | 16.1 | 0.00 | 0.00 | 0.00 | 34 | 1013.0 |
| 20260902002022 | 32 | 111 | 4.8 | 9.7 | 0.00 | 0.00 | 0.00 | 34 | 1013.0 |
| 20260902001038 | 33 | 101 | 4.8 | 9.7 | 0.00 | 0.00 | 0.00 | 33 | 1013.1 |
| 20260902000027 | 33 | 126 | 4.8 | 11.3 | 0.00 | 0.00 | 0.00 | 32 | 1013.3 |
| 20260901235022 | 33 | 115 | 6.4 | 12.9 | 0.00 | 0.00 | 0.00 | 31 | 1013.2 |
| 20260901234017 | 33 | 105 | 6.4 | 12.9 | 0.00 | 0.00 | 0.00 | 31 | 1013.2 |
| 20260901233027 | 33 | 105 | 6.4 | 12.9 | 0.00 | 0.00 | 0.00 | 32 | 1013.3 |
| 20260901232021 | 33 | 92 | 4.8 | 11.3 | 0.00 | 0.00 | 0.00 | 33 | 1013.2 |
| 20260901231016 | 33 | 113 | 6.4 | 12.9 | 0.00 | 0.00 | 0.00 | 33 | 1013.3 |
| 20260901230026 | 34 | 107 | 4.8 | 11.3 | 0.00 | 0.00 | 0.00 | 33 | 1013.4 |
| 20260901225021 | 35 | 97 | 4.8 | 11.3 | 0.00 | 0.00 | 0.00 | 32 | 1013.3 |
| 20260901224016 | 35 | 54 | 3.2 | 9.7 | 0.00 | 0.00 | 0.00 | 36 | 1013.4 |